Details for EasyJet at EGMC




Go Back


Latest METAR
Local Time

EGMC 221120Z 26006KT 9999 -RA SCT044 13/09 Q1019
22/09/2018, 12:52:47

Description
Results
EasyJet Logo
Number of Pilots based at EGMC
0 Pilots Based here
Number of EasyJet Flights Departed from EGMC
3 Flights Departed
Number of EasyJet Flights Arrived at EGMC
1 Flights Arrived
Number of EasyJet Schedules Departing from EGMC
31 Schedules
Number of EasyJet Schedules Arriving at EGMC
32 Schedules
Number of EasyJet Schedules Departing from EGMC availible today
12 Schedules Today
Number of EasyJet Schedules Arriving at EGMC availible today
12 Schedules Today
Average Landing Rate at EGMC
-323 fpm
EasyJet Average Landing Rate at EGMC
-88 fpm
Total Fuel Purchased at EGMC by EasyJet
8,537.06 kgs / 18,820.80 lbs

Pilots Based at EGMC


Pilot ID
Pilot Name
Pilot Rank
No. of Flights
No. of Flying Hours
There are no pilots assigned to this hub!   Will you be the first?
Content